Regional Weather Roundup
Issued by NWS Jackson, KY

Home | Current Version | Previous Version | Graphics & Text | Print | Product List | Glossary On
Versions: 1 2 3 4 5 6 7 8 9 10 11 12 13 14 15 16 17 18 19 20 21 22 23 24 25 26 27 28 29 30 31 32 33 34 35 36 37 38 39 40 41 42 43 44 45 46 47 48 49 50
000
ASUS43 KJKL 252311
RWRJKL

EAST KENTUCKY HOURLY WEATHER ROUNDUP
NATIONAL WEATHER SERVICE JACKSON KY
700 PM EDT FRI JUL 25 2014

NOTE: "FAIR" INDICATES FEW OR NO CLOUDS BELOW 12,000 FEET WITH
NO SIGNIFICANT WEATHER AND/OR OBSTRUCTIONS TO VISIBILITY.

* THESE REPORTS ARE NOT UNDER NWS QUALITY CONTROL AND MAY NOT
  REPORT WEATHER SUCH AS PRECIPITATION AND FOG.

KYZ079-080-083-085-087-088-110-112-115-119-120-260000
...EASTERN KENTUCKY...

CITY           SKY/WX    TMP DP  RH WIND       PRES   REMARKS
JACKSON        SUNNY     75  59  57 CALM      30.06S
LONDON         MOSUNNY   77  56  48 SW5       30.06R
SOMERSET*      PTSUNNY   77  57  50 CALM      30.05F
MONTICELLO*    PTSUNNY   78  65  64 CALM      30.06S
MIDDLESBORO*   MOSUNNY   77  63  63 N5        30.05S
HARLAN APT*    CLEAR     75  59  57 MISG      30.06S
HAZARD APT*    CLEAR     77  59  53 CALM      30.05
BLACK MTN*       N/A     66  61  82 NE1         N/A
PIKEVILLE APT* SUNNY     75  59  57 CALM      30.06F
BIG SANDY*     CLEAR     76  59  54 CALM      30.04F
MOREHEAD APT*    N/A     75  59  57 SW5       30.05S
$$

KYZ035-036-041-042-044-050-067-078-099-260000
...CENTRAL KENTUCKY...

CITY           SKY/WX    TMP DP  RH WIND       PRES   REMARKS
MT STERLING*   MOSUNNY   77  59  53 SW9       30.04S
FLEMING/MASON* MOSUNNY   76  60  57 SW5       30.02F
DANVILLE*      PTSUNNY   77  61  57 S5        30.03F
RICHMOND*      PTSUNNY   77  57  50 CALM      30.03F
LEXINGTON      PTSUNNY   79  59  50 SW9       30.01F
FRANKFORT      CLOUDY    77  56  48 SW6       29.99F
$$

KYZ091>093-OHZ055-061-077-WVZ005-015-034-035-042-260000
...SOUTHERN OHIO/WEST VIRGINIA...

CITY           SKY/WX    TMP DP  RH WIND       PRES   REMARKS
COVINGTON      CLOUDY    75  58  55 CALM      30.01F
COLUMBUS       CLOUDY    78  55  44 SW9       30.00S
DAYTON         CLOUDY    74  57  55 SW7       30.03R
WILMINGTON     PTSUNNY   73  59  61 S6        30.02R
HUNTINGTON     SUNNY     76  56  49 S3        30.02F
CHARLESTON     MOSUNNY   78  58  49 CALM      30.03F
PINEVILLE*     SUNNY     74  66  76 MISG      30.12S
BECKLEY        SUNNY     74  53  48 W8        30.10R
BLUEFIELD      SUNNY     76  59  55 NW7       30.13R
$$

VAZ002-007-008-TNZ017-027-036-066-071-260000
...SOUTHWEST VIRGINIA/EAST TENNESSEE...

CITY           SKY/WX    TMP DP  RH WIND       PRES   REMARKS
WISE*          MOSUNNY   73  59  60 N7        30.12S
JONESVILLE*    CLEAR     81  63  54 CALM      30.07S
ABINGDON*      SUNNY     80  60  49 N5        30.09R
BRISTOL        MOSUNNY   81  60  48 W5        30.05R
KNOXVILLE      MOSUNNY   82  59  45 SW7       30.02R
OAK RIDGE      SUNNY     84  62  47 VRB5      30.03R
CROSSVILLE     SUNNY     76  57  51 NW5       30.09R
NASHVILLE      PTSUNNY   83  57  41 NW9       30.02F
$$

...KEY TO REMARKS...
VSB - VISIBILITY IN MILES
WCI - WIND CHILL INDEX
HX  - HEAT INDEX

$$



USA.gov is the U.S. government's official web portal to all federal, state and local government web resources and services.